Location: Yucca Valley
(34.1140°N, 116.4310°W)
Time: 02:05:57
(UTC-07:00)

Daily predictions for brighter satellites

Satellite Brightness Start Highest point End
(mag) Time Altitude Azimuth Time Altitude Azimuth Time Altitude Azimuth
Terra 4.5 00:09:45 12° WNW 00:09:45 12° WNW 00:10:31 10° WNW
Cosmos 1943 Rocket 3.6 00:21:03 10° NNW 00:24:02 30° NW 00:24:02 30° NW
NOSS 3-2 (A) 4.1 00:48:05 53° NNE 00:48:05 53° NNE 00:53:00 10° NNE
Cosmos 1553 Rocket 4.5 00:46:09 10° N 00:51:06 57° N 00:51:06 57° N
CZ-2C R/B 3.8 00:50:01 10° NNE 00:53:33 40° NNE 00:53:33 40° NNE
Cosmos 2344 3.8 00:58:14 59° E 00:58:14 59° E 01:05:33 10° NE
CZ-4C R/B 3.2 01:06:10 42° N 01:06:10 42° N 01:10:08 10° NNE
Timation 2 Rocket 4.4 01:11:53 67° NNE 01:11:53 67° NNE 01:17:45 10° NNE
Cosmos 2266 Rocket 4.4 01:19:40 62° N 01:19:40 62° N 01:24:54 10° N
MOS 1-B Rocket 4.5 01:20:13 87° ENE 01:20:13 87° ENE 01:27:26 10° NNW
USA 215 3.7 01:14:51 10° NE 01:19:54 53° ENE 01:19:54 53° ENE
Cosmos 2082 Rocket 2.9 01:39:17 50° NNE 01:39:17 50° NNE 01:43:23 10° NNE
NOSS 3-3 (A) 4.4 01:39:04 10° NNW 01:46:24 81° W 01:46:24 81° W
NOSS 3-3 (C) 4.3 01:39:11 10° NNW 01:46:34 82° W 01:46:34 82° W
Cosmos 1697 Rocket 3.9 01:42:38 10° N 01:47:48 35° ENE 01:48:28 34° ENE
Cosmos 1833 Rocket 3.2 01:54:34 55° NNE 01:54:34 55° NNE 01:58:56 10° NNE
CENTAUR R/B 2.8 01:58:16 56° E 01:58:16 56° E 02:03:56 10° NE
Meteor 2-11 Rocket 4.4 02:12:41 10° N 02:18:35 83° N 02:18:35 83° N
ATLAS 2A CENTAUR R/B 4.4 02:24:11 23° SE 02:25:08 24° SE 02:39:04 10° E
Cosmos 1656 4.1 02:26:37 10° NNW 02:31:04 53° NW 02:31:04 53° NW
Meteor 1-11 4.2 02:34:41 79° NW 02:34:41 79° NW 02:40:16 10° N
Cosmos 1633 Rocket 4.0 02:38:24 46° N 02:38:24 46° N 02:41:33 10° N
Cosmos 2322 Rocket 4.4 02:33:27 10° N 02:37:45 22° ENE 02:42:02 10° ESE
SL-16 R/B 4.4 02:36:24 10° ESE 02:41:28 27° ENE 02:46:34 10° NNE
IRS-P3 4.3 02:37:01 10° N 02:41:54 62° NW 02:41:54 62° NW
AQUA 4.0 02:40:39 10° NNE 02:44:47 67° N 02:44:47 67° N
Cosmos 540 Rocket 3.5 02:44:26 10° NNW 02:49:05 71° NW 02:49:05 71° NW
Resurs 1-4 Rocket 3.7 02:46:55 10° NE 02:51:24 27° E 02:53:27 21° SE
Cosmos 1470 Rocket 3.9 02:53:52 64° ENE 02:53:52 64° ENE 02:57:54 10° NNE
Cosmos 1933 Rocket 3.8 02:58:49 68° NE 02:58:49 68° NE 03:02:46 10° N
Cosmos 1386 Rocket 4.4 02:59:30 63° SW 03:00:25 74° W 03:06:38 10° N
Cosmos 1745 Rocket 4.3 03:01:55 49° W 03:02:27 50° W 03:08:37 10° N
USA 215 4.4 02:58:18 10° NNE 03:04:00 33° NW 03:07:14 22° W
SEDSat Delta rocket 4.0 03:05:38 58° SW 03:06:42 66° S 03:13:13 10° E
SL-08 R/B 3.8 03:10:14 47° WNW 03:10:14 47° WNW 03:14:13 10° NNW
Cosmos 1980 Rocket 2.0 03:04:19 10° NNW 03:09:56 74° WSW 03:10:49 61° SSW
ERS-2 4.4 03:07:36 10° NNW 03:08:59 17° NW 03:08:59 17° NW
Cosmos 1709 Rocket 4.0 03:12:16 45° S 03:14:23 87° E 03:20:43 10° N
Nadezhda 1 Rocket 4.0 03:09:27 10° NNW 03:15:28 56° W 03:16:22 51° SW
Cosmos 332 Rocket 3.8 03:12:40 10° NNW 03:17:02 59° W 03:17:02 59° W
Cosmos 968 Rocket 3.7 03:18:36 50° W 03:18:57 51° WNW 03:23:57 10° N
Cosmos 2292 Rocket 4.0 03:20:01 39° NE 03:20:01 39° NE 03:22:18 10° NNE
Okean O Rocket 3.8 03:17:32 10° NE 03:20:48 20° E 03:23:46 11° SE
Cosmos 2082 Rocket 4.4 03:21:08 11° WNW 03:22:33 12° NW 03:24:25 10° NNW
Spot 4 Rocket 4.0 03:18:47 10° N 03:23:53 65° WNW 03:24:46 55° WSW
CZ-2D R/B 2.4 03:23:01 10° NNE 03:28:13 62° E 03:30:35 32° S
Cosmos 1538 Rocket 3.9 03:24:32 10° NNW 03:29:45 73° WSW 03:31:31 42° S
Lacrosse 5 1.9 03:26:17 10° NW 03:31:21 76° NE 03:36:23 10° SE
Cosmos 1697 Rocket 4.0 03:26:55 10° NW 03:30:09 24° WNW 03:30:09 24° WNW
Cosmos 1869 3.3 03:29:23 10° N 03:33:21 78° E 03:34:10 54° SSE
Cosmos 1455 2.0 03:29:34 10° N 03:33:23 84° W 03:33:27 83° WSW
UNKNOWN OBJECT B 3.5 03:32:48 10° NNE 03:36:29 48° E 03:37:44 34° SSE
Cosmos 1862 Rocket 3.5 03:32:33 10° NNW 03:36:59 65° W 03:37:40 56° SW
Cosmos 1680 Rocket 4.4 03:38:55 10° N 03:43:57 48° ENE 03:48:58 10° SE
ADEOS 4.4 03:39:54 10° N 03:44:30 33° WNW 03:45:38 30° W
Cosmos 1777 Rocket 4.4 03:43:53 38° WSW 03:45:21 49° WNW 03:50:29 10° N
Cosmos 2360 4.3 03:39:56 10° NNW 03:45:27 52° WSW 03:48:06 29° SSW
OAO 3 Rocket 3.0 03:45:10 40° W 03:46:52 87° N 03:51:36 10° E
Meteor 1-4 Rocket 3.1 03:44:16 10° NNW 03:47:32 42° W 03:47:32 42° W
CENTAUR R/B 4.1 03:45:26 16° W 03:48:38 23° NW 03:53:53 10° N
MOS 1-B 4.3 03:43:19 10° NNE 03:49:08 85° WNW 03:52:24 27° SSW
Cosmos 1933 3.8 03:46:45 10° N 03:50:44 61° E 03:53:49 16° SSE
ATLAS 5 CENTAUR R/B 1.8 03:50:11 35° SSW 03:52:11 76° ESE 03:57:17 10° NE
IRS-1D 3.8 03:50:19 10° N 03:55:31 54° WNW 03:57:48 31° SW
EO 1 Del DPAF 3.5 03:56:23 43° SW 03:56:53 46° W 04:00:40 10° NNW
OAO 1 Rocket 4.4 03:54:20 18° W 03:58:19 87° N 04:03:42 10° E
Cosmos 1869 Rocket 3.5 03:56:10 28° S 03:58:26 86° E 04:02:51 10° N
Lacrosse 5 rocket 3.3 03:54:38 10° NNW 03:58:44 35° NE 04:02:56 10° ESE
ARIANE 5 R/B 3.0 03:54:38 10° N 03:59:25 42° WNW 04:01:19 30° WSW
Cosmos 773 Rocket 3.9 03:55:04 10° NNW 04:00:10 68° WSW 04:05:15 10° S
USA 229 DEB 4.5 03:54:58 15° S 04:00:26 47° ESE 04:07:03 10° NE
USA 229 4.5 03:55:03 15° S 04:00:32 47° ESE 04:07:09 10° NE
PSLV R/B 4.4 03:57:58 10° NNE 04:01:49 55° E 04:04:39 18° S
Cosmos 1346 3.4 04:03:15 47° W 04:03:21 47° W 04:06:20 10° N
Cosmos 2181 Rocket 4.2 04:00:11 10° NNW 04:06:05 50° W 04:10:18 19° SSW
Cosmos 1626 3.7 04:06:26 21° WNW 04:06:26 21° WNW 04:09:19 10° NNW
MTI 3.9 04:06:13 38° SSW 04:07:14 57° W 04:10:34 10° NNW
SL-16 R/B 2.1 04:01:55 10° NNW 04:07:33 66° WSW 04:13:09 10° S
Cosmos 1271 Rocket 4.1 04:06:35 10° NW 04:09:09 22° W 04:09:09 22° W
Cosmos 371 Rocket 4.2 04:06:15 10° NW 04:10:15 26° W 04:10:53 26° WSW
Cosmos 1898 Rocket 4.1 04:07:23 12° S 04:12:02 55° ESE 04:17:05 10° NNE
Atlas Centaur 2 4.2 04:14:58 15° SSW 04:14:58 15° SSW 04:17:00 10° S
GPS 2-05 Rocket1 2.7 04:14:40 34° WSW 04:16:00 79° SSE 04:19:29 10° E
ISS 0.0 04:15:46 10° N 04:17:21 13° NNE 04:18:57 10° ENE
Cosmos 2150 Rocket 4.3 04:13:38 13° S 04:18:17 68° ESE 04:23:35 10° NNE
Centaur AC-125 4.1 04:19:02 10° SSE 04:19:49 11° SSE 04:20:49 10° SE
Cosmos 2322 Rocket 2.5 04:16:40 10° NW 04:21:58 44° WSW 04:27:13 10° S
SL-16 R/B 2.9 04:19:07 11° SSW 04:24:47 42° W 04:30:42 10° NNW
Cosmos 1937 Rocket 4.3 04:19:41 10° S 04:24:48 51° ESE 04:29:56 10° NNE
Resurs 1-4 Rocket 3.1 04:26:32 10° N 04:31:09 31° WNW 04:34:31 16° WSW
Cosmos 1703 Rocket 4.0 04:27:20 10° NNW 04:31:24 40° W 04:35:00 13° SSW
Cosmos 304 Rocket 3.7 04:26:42 10° NNW 04:31:30 66° WSW 04:36:16 10° S
Cosmos 1733 Rocket 3.8 04:30:22 10° S 04:34:34 53° E 04:38:48 10° NNE
Meteor 1-26 Rocket 4.1 04:29:47 10° NNW 04:35:20 77° W 04:40:49 10° S
Cosmos 2112 Rocket 4.0 04:32:18 10° NNW 04:37:23 58° WSW 04:42:28 10° S
Cosmos 2074 Rocket 4.4 04:34:00 13° SSW 04:39:07 43° W 04:45:02 10° N
Cosmos 2184 Rocket 4.5 04:35:16 12° SSW 04:40:47 44° W 04:46:51 10° N
CZ-2D R/B 4.4 04:40:35 10° N 04:44:16 31° WNW 04:47:18 13° SW
SME Rocket 4.4 04:40:18 10° S 04:48:16 52° WSW 04:53:34 10° NNW
Cosmos 2227 Rocket 4.1 04:46:37 10° SSE 04:51:16 27° ESE 04:55:57 10° NE
FALCON 9 R/B 0.3 04:50:20 10° W 04:52:28 84° N 04:55:42 10° E
SEDSat Delta rocket 4.0 04:46:36 10° W 04:53:19 67° S 04:59:29 10° ESE
Cosmos 2360 Rocket 2.2 04:49:07 10° NNW 04:54:43 71° WSW 05:00:18 10° S
In-Cosmos 22 Rocket 4.3 04:49:49 10° SSW 04:54:57 50° W 05:00:09 10° N
CZ-4B R/B 3.5 04:50:52 10° N 04:56:04 49° WNW 05:01:23 10° SW
Okean O Rocket 2.7 04:53:20 10° NNW 04:57:09 29° WNW 05:00:56 10° SW
Cosmos 220 Rocket 4.4 04:54:28 10° S 04:58:37 61° ESE 05:02:50 10° NNE
Cosmos 2219 3.5 04:53:19 10° SW 04:58:55 56° WNW 05:04:35 10° NNE
ATLAS CENTAUR R/B 3.8 04:55:18 10° N 04:59:26 31° NE 05:03:15 10° ESE
CZ-2C R/B 4.4 04:55:41 10° SSW 04:59:38 31° W 05:03:40 10° NW
Cosmos 2322 3.8 04:57:14 10° NNW 05:02:53 61° WSW 05:08:28 10° S
Cosmos 1908 Rocket 4.5 05:01:47 10° S 05:06:06 53° E 05:10:24 10° NNE
CZ-2D R/B 4.0 05:05:05 10° NNW 05:07:44 14° WNW 05:10:24 10° W
GP-B 3.1 05:03:40 10° N 05:08:08 89° W 05:12:33 10° S
Okean 1-7 4.3 05:07:19 10° NW 05:10:47 23° W 05:14:12 10° SW
